Location: Riverside Cemetery
(38.3047°N, 99.7773°W)
Time: 07:21:25
(UTC+00:00)

Cosmos 1908 Rocket - Pass Details

Date: 19 September 2020
Orbit: 607 x 631 km, 82.5° (Epoch: 21 October)

Event Time Altitude Azimuth Distance (km) Brightness Sun altitude
Rises 01:10:25 0° 190° (S) 2,852 7.0 -6.5°
Reaches altitude 10° 01:12:37 10° 193° (SSW) 1,954 6.2 -6.9°
Maximum altitude 01:16:56 73° 278° (W) 644 3.9 -7.8°
Drops below altitude 10° 01:21:19 10° 3° (N) 1,981 6.2 -8.6°
Sets 01:23:34 0° 6° (N) 2,895 7.1 -9.1°
